Temperature
17 17 17 17 17 17 17 17 17 16 17 16 16 16 16 16 16 16 16 15 15 15 15 15 15 15 15 15 15 15 15 15 15 15 15 15 15 15
17 17 17 17 16 17 17 17 17 17 16 16 16 16 16 16 15 15 15 15 15 15 15 15 15 15 15 15 15 15 15 15 15 15 15 15 15 15
17 17 17 16 16 16 16 16 16 16 16 16 16 16 16 15 15 15 15 15 15 15 15 15 15 15 15 15 15 15 15 14 14 14 14 14 14 14
16 16 16 16 16 16 16 16 16 16 16 16 15 15 15 15 15 15 15 14 15 15 15 15 15 15 14 15 15 15 14 14 14 14 14 14 14 14
16 16 16 16 16 16 16 16 16 16 16 15 15 15 15 15 15 15 14 14 14 14 14 14 14 14 14 14 14 14 14 14 14 14 14 14 14 14
16 16 16 16 15 15 15 15 15 15 15 15 15 15 15 15 14 14 14 14 14 14 14 14 14 14 14 14 14 14 14 14 14 14 14 14 14 14
16 15 15 15 15 15 15 15 15 15 15 15 14 14 14 14 14 14 14 14 14 14 14 14 14 14 14 14 14 14 14 14 14 14 13 13 13 13
15 15 15 15 15 15 15 15 15 15 15 14 14 14 14 14 14 14 14 14 14 14 14 14 14 14 14 14 14 14 14 13 13 13 13 13 13 13
15 15 15 15 15 15 15 15 14 14 14 14 14 14 14 14 14 14 14 14 14 14 14 14 14 14 14 14 14 14 13 13 13 13 13 13 13 13
15 15 15 15 15 15 14 14 14 14 14 14 14 14 14 14 14 13 13 13 14 14 13 13 13 13 14 14 14 14 13 13 13 13 13 13 13 12
15 15 15 15 15 14 14 14 14 14 14 14 14 14 14 14 13 13 13 13 13 13 13 13 13 13 13 13 13 13 13 13 13 13 13 13 13 12
15 15 14 14 14 14 14 14 14 14 14 13 14 14 13 13 13 13 13 13 13 13 13 13 13 13 13 13 13 13 13 13 13 13 13 13 12 12
14 14 14 14 14 14 14 14 14 14 13 13 13 13 13 13 13 13 13 13 12 12 13 13 13 12 12 12 13 13 13 13 13 12 12 12 12 12
14 14 14 14 14 14 14 14 13 13 13 13 13 13 13 13 13 13 13 13 13 13 13 12 12 12 12 12 12 12 12 12 12 12 12 12 12 12
14 14 14 14 14 14 14 13 13 13 13 13 13 13 13 13 13 13 12 12 12 12 12 12 12 12 12 12 12 12 12 12 12 12 12 12 12 11
13 13 13 13 13 13 13 13 13 13 13 13 13 13 12 12 12 12 12 12 12 12 12 12 12 12 12 12 12 12 12 12 12 12 11 11 11 11
13 13 13 13 13 13 13 13 13 13 12 12 12 12 12 12 12 12 12 12 12 12 12 12 12 12 12 12 12 12 12 12 12 11 11 11 11 11
13 13 13 13 13 13 12 12 12 12 12 12 12 12 12 12 12 12 12 12 12 12 12 12 12 12 11 11 12 12 12 11 11 11 11 11 10 10
13 12 12 12 13 12 12 12 12 12 12 12 12 12 12 12 12 12 12 11 11 11 12 11 11 11 11 11 11 11 11 11 11 11 11 11 10 10
12 12 12 12 12 12 12 12 12 12 12 12 12 12 12 12 12 12 11 11 11 11 11 11 11 11 11 11 11 11 11 11 11 10 10 10 10 10
12 12 12 12 12 12 12 12 12 12 12 12 11 11 11 11 11 11 11 11 11 11 11 11 11 11 11 11 10 10 11 10 10 10 10 10 10 10
12 12 12 12 12 12 11 11 11 11 11 11 11 11 11 11 11 11 11 11 11 11 11 11 11 10 10 10 10 10 10 10 10 10 10 10 10 9
12 11 11 11 11 11 11 11 11 11 11 11 11 11 11 11 11 11 11 11 11 11 10 10 10 10 10 10 10 10 10 10 10 10 10 10 10 10
Wind_Speed
2 1 1 2 1 1 1 1 1 1 1 1 1 2 4 5 7 6 6 7 7 6 5 4 3 2 1 1 1 1 2 3 4 5 6 6 7 8
1 0 1 2 2 1 1 1 1 1 1 1 1 2 3 4 6 6 7 8 8 7 6 5 4 3 2 2 2 1 1 2 2 2 3 4 5 6
1 0 0 1 2 2 2 1 0 1 1 1 0 2 2 1 2 4 5 7 7 8 8 8 7 6 4 3 2 1 1 1 1 2 2 2 3 4
1 1 1 1 1 2 2 2 1 1 1 1 0 1 1 2 2 3 3 5 6 9 10 10 9 7 6 5 4 3 2 1 1 1 1 1 2 3
1 1 1 1 2 2 1 2 2 1 1 1 1 1 1 0 1 2 2 3 5 7 9 9 9 9 8 7 6 4 3 2 2 2 1 1 2 2
1 1 2 2 2 2 2 1 1 1 1 1 1 1 1 1 1 1 2 2 2 3 4 7 9 9 9 8 7 6 5 4 3 3 2 2 2 3
2 2 2 2 1 1 1 1 1 1 1 1 1 1 1 0 1 2 2 2 2 2 1 3 5 5 6 8 8 7 7 6 5 5 4 4 4 4
2 3 3 3 3 3 2 1 1 1 2 2 2 1 1 1 2 2 2 2 2 2 2 3 3 4 5 7 9 9 9 7 7 6 6 6 6 5
3 3 4 4 3 3 3 4 4 4 3 2 2 2 2 1 2 3 3 3 3 2 2 3 2 3 3 7 12 12 10 9 8 8 7 7 7 7
3 4 4 3 3 2 3 3 3 4 5 4 3 3 3 2 3 4 4 4 3 2 1 2 2 2 2 4 10 12 12 10 9 9 9 8 8 8
4 4 4 4 4 5 4 4 4 4 4 4 5 4 5 5 3 3 3 3 3 2 1 2 2 2 2 2 6 11 11 11 10 9 9 9 9 8
3 2 3 4 5 6 4 4 5 5 4 3 4 6 7 7 7 5 4 3 3 2 1 1 2 1 2 1 2 6 7 8 10 10 10 9 8 6
3 2 2 4 5 6 6 5 6 5 4 4 4 5 5 4 5 5 4 3 3 3 2 1 2 2 2 2 1 3 5 5 6 6 9 10 10 8
3 1 2 3 4 6 6 6 7 5 4 4 4 5 4 4 4 4 4 4 4 5 4 3 3 3 3 3 2 2 3 4 5 5 5 8 9 10
2 2 2 4 5 5 8 8 6 5 5 5 5 5 4 4 3 3 4 4 5 6 6 5 4 3 3 3 2 2 2 3 4 4 4 5 5 5
2 2 3 5 5 5 4 5 5 5 5 5 5 5 4 4 4 3 4 3 4 5 5 6 5 4 5 4 2 2 2 3 3 2 2 2 4 5
2 2 2 2 3 4 4 4 5 5 5 5 5 5 4 4 4 4 4 4 4 5 4 3 4 4 4 3 3 3 2 1 2 3 2 2 2 4
2 3 4 4 4 4 4 4 5 5 5 5 5 5 5 5 4 4 4 4 5 5 4 3 3 3 2 2 2 2 2 1 1 2 2 3 3 2
2 4 4 3 4 4 4 4 4 4 4 4 4 4 4 5 4 4 4 4 4 4 4 3 3 3 4 4 3 3 3 2 1 2 2 2 3 3
4 4 3 3 3 3 3 4 3 3 3 3 4 4 4 4 4 4 4 5 4 4 3 3 4 4 4 4 2 3 5 4 3 3 2 2 2 3
4 4 3 3 3 3 3 3 4 3 3 3 3 3 3 3 4 4 4 5 5 4 4 4 4 4 3 2 2 3 3 6 6 4 3 3 3 3
3 3 4 3 3 2 3 3 3 3 3 4 3 3 3 4 4 4 4 3 4 4 4 2 2 2 3 4 5 4 4 3 5 8 6 5 3 4
3 3 3 3 3 3 3 3 3 3 2 3 3 3 3 3 3 3 3 3 3 3 3 2 2 2 3 4 4 4 4 4 3 3 4 6 8 8
Wind_Direction
272 274 284 293 272 254 239 221 229 269 256 190 148 141 150 149 158 172 168 181 188 189 194 197 198 202 205 210 229 272 279 267 270 250 241 242 240 234
255 302 316 322 329 298 238 231 245 251 271 226 183 162 166 167 174 185 182 186 188 191 195 194 198 202 206 217 220 238 282 269 262 261 250 241 226 222
275 226 267 314 315 324 323 316 265 249 252 288 108 135 123 142 157 190 189 180 183 197 196 197 202 203 201 209 207 194 241 248 236 247 266 241 210 201
223 245 268 279 282 298 319 319 295 235 196 241 303 164 168 167 187 221 198 202 190 203 202 202 201 199 197 204 205 202 210 216 228 254 269 240 201 189
205 204 222 257 273 274 295 299 309 310 172 194 245 214 180 235 218 241 237 221 213 197 201 201 203 203 202 206 205 202 199 199 205 214 228 217 188 182
231 214 224 226 241 250 265 272 286 306 282 222 236 232 191 244 222 243 268 251 248 201 198 202 205 209 206 204 201 197 194 197 203 203 197 182 167 167
241 217 223 216 202 225 255 281 275 261 253 257 249 236 240 189 256 244 251 253 241 226 241 214 192 200 196 195 198 200 199 200 202 204 202 192 182 177
245 232 220 213 206 204 214 241 230 250 272 267 269 266 271 250 258 268 275 280 267 233 233 254 199 199 187 183 193 197 199 199 198 200 202 198 194 193
252 245 246 239 206 205 213 226 231 230 230 241 269 281 272 281 278 282 281 278 261 243 238 251 238 219 196 178 184 190 195 196 197 200 203 204 203 203
238 238 235 241 240 216 228 230 237 239 228 227 239 258 256 265 267 266 274 283 264 248 224 256 268 262 233 172 185 188 193 195 198 201 205 208 208 209
240 246 232 219 218 213 222 234 240 247 242 225 229 239 242 249 262 285 283 286 282 255 210 240 256 277 260 193 187 190 191 194 199 201 205 210 213 209
242 232 211 207 218 208 217 233 242 247 251 248 240 243 241 239 235 228 244 264 276 270 261 258 256 253 260 240 182 183 193 204 204 205 206 211 210 207
247 232 210 205 216 215 218 230 236 247 249 242 242 240 238 235 233 221 221 233 252 257 255 240 260 254 242 253 235 195 188 187 196 207 209 209 205 200
259 228 203 214 222 221 220 232 242 248 248 245 247 245 240 235 234 218 218 225 230 245 245 237 248 245 248 258 252 202 199 187 182 185 193 203 208 211
303 338 285 254 242 230 224 230 235 236 235 240 243 243 239 234 221 219 226 229 237 246 239 227 237 252 248 252 252 226 210 205 184 178 177 178 186 195
275 296 275 256 252 247 239 231 231 237 238 242 250 248 237 232 233 228 231 229 235 243 236 229 231 238 247 250 251 252 221 200 181 170 167 175 183 191
252 258 264 259 244 236 233 231 233 237 241 244 249 250 241 238 236 229 230 237 239 242 236 228 228 229 238 243 246 249 239 204 172 164 164 187 205 192
228 248 248 247 246 245 246 241 237 237 238 243 248 249 244 239 238 231 225 231 238 241 235 222 211 215 242 267 245 242 243 224 201 175 177 197 215 203
230 252 250 252 257 255 256 258 252 240 237 241 246 251 247 238 233 232 231 233 238 239 227 219 221 221 237 246 254 236 232 230 199 193 203 215 224 210
239 250 253 255 258 254 257 263 263 253 241 247 253 253 250 246 242 235 232 235 235 238 229 220 221 221 229 240 246 241 225 217 209 210 211 225 226 202
248 252 260 261 265 255 251 258 258 249 249 253 256 259 260 260 251 245 238 232 236 237 234 228 224 214 217 218 241 236 227 220 215 210 209 217 233 225
253 254 260 264 265 265 265 269 272 265 258 254 254 259 260 259 258 259 252 242 235 235 242 238 204 207 226 227 233 232 233 224 223 226 228 227 221 226
270 273 270 272 266 266 271 267 270 280 277 274 273 269 267 266 267 263 257 249 244 233 221 225 222 223 230 228 228 230 237 232 223 218 244 240 234 233
Height
1521 1521 1521 1521 1522 1522 1522 1523 1524 1524 1524 1524 1523 1523 1523 1523 1523 1523 1523 1523 1522 1522 1521 1521 1520 1519 1519 1518 1518 1518 1517 1517 1516 1515 1516 1517 1518 1520
1519 1519 1519 1520 1520 1521 1521 1522 1522 1522 1522 1522 1522 1522 1521 1521 1521 1521 1520 1520 1520 1520 1519 1518 1518 1517 1517 1516 1516 1515 1514 1514 1513 1512 1512 1513 1514 1515
1517 1517 1517 1518 1518 1518 1519 1520 1520 1520 1520 1521 1521 1520 1520 1519 1519 1519 1518 1518 1518 1518 1517 1517 1516 1515 1515 1514 1514 1513 1512 1512 1511 1510 1510 1510 1511 1512
1515 1515 1515 1516 1516 1517 1517 1518 1518 1518 1519 1518 1519 1518 1518 1517 1517 1517 1516 1516 1516 1516 1516 1515 1515 1514 1513 1512 1512 1511 1510 1510 1509 1508 1508 1508 1509 1509
1513 1513 1513 1514 1514 1515 1515 1515 1516 1516 1516 1517 1517 1517 1516 1516 1515 1515 1515 1515 1514 1514 1514 1513 1513 1512 1512 1511 1510 1509 1509 1508 1507 1507 1507 1507 1507 1508
1510 1511 1511 1511 1512 1513 1513 1513 1514 1514 1514 1514 1514 1515 1514 1514 1513 1513 1513 1513 1513 1513 1512 1511 1511 1510 1510 1509 1509 1508 1507 1506 1506 1506 1505 1505 1506 1506
1508 1508 1508 1509 1510 1510 1511 1511 1512 1512 1512 1512 1512 1512 1512 1512 1512 1512 1511 1511 1511 1511 1510 1510 1509 1508 1508 1507 1507 1506 1506 1505 1504 1504 1504 1504 1504 1505
1505 1505 1506 1507 1507 1508 1508 1509 1510 1510 1510 1510 1510 1510 1510 1510 1510 1510 1509 1509 1508 1509 1508 1508 1507 1506 1505 1505 1505 1505 1504 1503 1503 1502 1502 1502 1503 1503
1502 1503 1503 1504 1505 1505 1506 1506 1507 1507 1508 1508 1507 1507 1507 1507 1507 1507 1507 1506 1506 1506 1506 1505 1505 1504 1503 1503 1503 1502 1502 1502 1501 1501 1500 1500 1501 1502
1499 1499 1500 1501 1502 1503 1503 1504 1504 1504 1504 1505 1504 1505 1505 1505 1505 1505 1504 1504 1504 1504 1504 1503 1502 1502 1501 1501 1500 1500 1500 1500 1499 1499 1499 1499 1499 1500
1496 1497 1497 1498 1499 1499 1500 1500 1500 1501 1501 1501 1501 1502 1502 1502 1502 1502 1501 1501 1500 1500 1500 1500 1499 1499 1498 1498 1498 1498 1498 1498 1497 1497 1497 1497 1498 1498
1493 1493 1494 1494 1495 1496 1496 1496 1496 1497 1498 1498 1498 1498 1498 1498 1498 1498 1497 1497 1497 1497 1497 1497 1497 1496 1496 1495 1495 1495 1495 1495 1495 1495 1495 1496 1496 1496
1490 1490 1490 1491 1491 1492 1492 1492 1492 1493 1494 1494 1494 1494 1494 1494 1493 1493 1494 1494 1494 1493 1494 1494 1494 1493 1493 1492 1492 1492 1492 1492 1492 1493 1493 1493 1494 1494
1487 1487 1487 1487 1487 1487 1488 1488 1489 1489 1490 1490 1490 1490 1490 1489 1489 1489 1490 1490 1490 1490 1490 1491 1490 1490 1490 1490 1489 1489 1489 1489 1490 1490 1490 1491 1491 1491
1484 1484 1484 1483 1483 1483 1484 1484 1485 1485 1485 1485 1485 1485 1485 1485 1486 1486 1486 1486 1486 1486 1486 1487 1487 1487 1487 1487 1486 1486 1486 1486 1486 1487 1487 1487 1488 1488
1480 1480 1480 1480 1480 1480 1480 1480 1480 1480 1480 1480 1480 1481 1481 1481 1481 1481 1481 1482 1482 1482 1482 1483 1483 1483 1483 1483 1483 1483 1483 1483 1483 1483 1484 1484 1485 1485
1476 1476 1476 1476 1476 1476 1476 1476 1477 1477 1477 1476 1476 1476 1477 1476 1476 1477 1477 1477 1478 1478 1478 1478 1479 1479 1479 1480 1479 1480 1480 1480 1480 1480 1480 1480 1481 1482
1473 1473 1473 1473 1473 1473 1473 1473 1472 1472 1472 1472 1472 1472 1472 1472 1472 1473 1473 1473 1473 1474 1474 1474 1475 1475 1475 1475 1476 1476 1476 1476 1477 1477 1478 1478 1478 1479
1470 1469 1469 1469 1469 1469 1469 1469 1468 1468 1468 1468 1468 1468 1468 1468 1468 1468 1469 1469 1469 1469 1469 1470 1470 1471 1471 1470 1471 1473 1473 1473 1473 1473 1474 1474 1474 1475
1466 1466 1466 1466 1466 1465 1465 1465 1465 1464 1464 1464 1464 1464 1464 1464 1464 1464 1464 1464 1464 1465 1465 1465 1466 1466 1466 1467 1467 1468 1469 1469 1469 1470 1470 1470 1471 1471
1463 1463 1462 1462 1462 1462 1461 1461 1461 1460 1460 1460 1460 1459 1460 1460 1459 1459 1459 1459 1460 1460 1460 1461 1461 1462 1462 1463 1464 1463 1464 1465 1466 1466 1466 1466 1466 1467
1459 1459 1458 1458 1458 1457 1457 1457 1457 1457 1456 1456 1455 1455 1455 1455 1455 1455 1455 1455 1455 1455 1456 1456 1457 1458 1458 1458 1458 1459 1460 1461 1461 1462 1462 1463 1463 1462
1455 1455 1454 1454 1453 1453 1453 1453 1452 1452 1452 1451 1451 1451 1451 1451 1451 1451 1451 1451 1451 1451 1451 1452 1452 1453 1453 1454 1454 1455 1455 1456 1457 1457 1458 1458 1459 1460